Simultaneous Nadir Overpasses (SNOs) Predictions

Prediction of SNOs between GOES-17 and METOP-B Satellite Orbit:

Table of predicted SNOs for the next 14.0 days since TLE Epoch: 3/30/2024
Index Date Time (GOES-17) GOES-17 Lat,Lon METOP-B Lat,Lon Distance(km) Time Diff (sec)
1 03/31/2024 04:27:01 0.02,-104.68 -0.16,-105.31 73.39 80
2 04/01/2024 04:03:41 0.02,-104.67 0.96,-100.32 494.71 80
3 04/02/2024 16:22:33 -0.02,-104.68 0.02,-104.91 25.91 80
4 04/05/2024 04:20:53 0.03,-104.66 0.06,-104.52 16.38 80
5 04/07/2024 16:21:44 0.02,-104.67 -0.11,-104.09 65.86 80
6 04/09/2024 04:40:43 -0.02,-104.66 -0.92,-108.69 459.48 80
7 04/10/2024 04:17:24 -0.01,-104.66 0.22,-103.71 108.79 80
8 04/11/2024 16:36:15 0.00,-104.66 0.78,-108.28 411.98 80
9 04/12/2024 16:18:15 -0.01,-104.66 -0.31,-103.28 156.46 80
